Location: Prairie View Elementary School
(39.8322°N, 99.5698°W)
Time: 01:23:24
(UTC+00:00)

YAOGAN 1 - Pass Details

Date: 08 December 2019
Orbit: 619 x 621 km, 98.0° (Epoch: 27 January)

Event Time Altitude Azimuth Distance (km) Brightness Sun altitude
Rises 00:44:59 0° 152° (SSE) 2,882 5.9 -17.1°
Reaches altitude 10° 00:47:13 10° 147° (SSE) 1,981 5.0 -17.5°
Maximum altitude 00:51:21 48° 73° (ENE) 817 2.7 -18.2°
Drops below altitude 10° 00:55:31 10° 359° (N) 1,996 5.0 -19.0°
Sets 00:57:46 0° 354° (N) 2,907 5.9 -19.4°
